| time (UTC) | temp C | wind direction | speed KPH | gust KPH | rain 1hr cm | rain 24hr cm | rain mn cm | humidity % | barometer mb |
| 20260504081541 | 14 | 213 | 0.0 | 12.9 | 0.00 | 0.00 | 0.00 | 71 | 1005.6 |
| 20260504050012 | 16 | 238 | 0.0 | 3.2 | 0.00 | 0.00 | 0.00 | 58 | 1007.1 |
| 20260504044521 | 16 | 230 | 0.0 | 3.2 | 0.00 | 0.00 | 0.00 | 59 | 1007.3 |
| 20260504043015 | 16 | 233 | 1.6 | 4.8 | 0.00 | 0.00 | 0.00 | 59 | 1007.3 |
| 20260504041510 | 16 | 148 | 0.0 | 0.0 | 0.00 | 0.00 | 0.00 | 59 | 1007.5 |
| 20260504040008 | 17 | 103 | 0.0 | 0.0 | 0.00 | 0.00 | 0.00 | 57 | 1007.4 |
| 20260504034508 | 17 | 209 | 0.0 | 1.6 | 0.00 | 0.00 | 0.00 | 56 | 1007.8 |
| 20260504033108 | 17 | 206 | 1.6 | 6.4 | 0.00 | 0.00 | 0.00 | 56 | 1008.0 |
| 20260504031507 | 17 | 346 | 0.0 | 3.2 | 0.00 | 0.00 | 0.00 | 57 | 1007.7 |
| 20260504030008 | 17 | 290 | 0.0 | 3.2 | 0.00 | 0.00 | 0.00 | 58 | 1007.9 |
| 20260504024509 | 17 | 283 | 1.6 | 3.2 | 0.00 | 0.00 | 0.00 | 56 | 1008.1 |
| 20260504023008 | 17 | 271 | 0.0 | 1.6 | 0.00 | 0.00 | 0.00 | 58 | 1008.0 |
| 20260504021506 | 17 | 272 | 1.6 | 3.2 | 0.00 | 0.00 | 0.00 | 59 | 1008.4 |
| 20260504020007 | 17 | 278 | 1.6 | 4.8 | 0.00 | 0.00 | 0.00 | 59 | 1008.1 |
| 20260504014506 | 18 | 242 | 3.2 | 8.0 | 0.00 | 0.00 | 0.00 | 56 | 1007.7 |
| 20260504013004 | 17 | 284 | 0.0 | 3.2 | 0.00 | 0.00 | 0.00 | 64 | 1007.8 |
| 20260504011504 | 17 | 272 | 0.0 | 1.6 | 0.00 | 0.00 | 0.00 | 60 | 1007.9 |
| 20260504010002 | 18 | 263 | 0.0 | 1.6 | 0.00 | 0.00 | 0.00 | 57 | 1007.9 |
| 20260504004502 | 18 | 227 | 0.0 | 3.2 | 0.00 | 0.00 | 0.00 | 55 | 1007.9 |
| 20260504003001 | 18 | 262 | 0.0 | 1.6 | 0.00 | 0.00 | 0.00 | 54 | 1007.8 |
| 20260504001501 | 19 | 262 | 0.0 | 3.2 | 0.00 | 0.00 | 0.00 | 54 | 1007.5 |
| 20260504000100 | 20 | 281 | 1.6 | 4.8 | 0.00 | 0.00 | 0.00 | 51 | 1008.0 |
| 20260503234600 | 20 | 274 | 1.6 | 6.4 | 0.00 | 0.00 | 0.00 | 51 | 1007.9 |
| 20260503233059 | 20 | 271 | 0.0 | 4.8 | 0.00 | 0.00 | 0.00 | 50 | 1007.6 |
| 20260503231558 | 20 | 245 | 4.8 | 8.0 | 0.00 | 0.00 | 0.00 | 49 | 1008.2 |
| 20260503230100 | 20 | 269 | 4.8 | 16.1 | 0.00 | 0.00 | 0.00 | 48 | 1007.9 |
| 20260503224556 | 21 | 292 | 8.0 | 19.3 | 0.00 | 0.00 | 0.00 | 49 | 1008.6 |
| 20260503223056 | 21 | 276 | 8.0 | 17.7 | 0.00 | 0.00 | 0.00 | 49 | 1007.8 |
| 20260503221555 | 21 | 271 | 9.7 | 25.7 | 0.00 | 0.00 | 0.00 | 47 | 1007.8 |
| 20260503220054 | 21 | 267 | 9.7 | 19.3 | 0.00 | 0.00 | 0.00 | 47 | 1007.7 |
| 20260503214552 | 21 | 251 | 9.7 | 17.7 | 0.00 | 0.00 | 0.00 | 48 | 1007.7 |
| 20260503213056 | 21 | 287 | 12.9 | 25.7 | 0.00 | 0.00 | 0.00 | 46 | 1008.2 |
| 20260503211550 | 21 | 274 | 8.0 | 14.5 | 0.00 | 0.00 | 0.00 | 46 | 1008.2 |
| 20260503210052 | 21 | 239 | 12.9 | 20.9 | 0.00 | 0.00 | 0.00 | 46 | 1008.4 |
| 20260503204542 | 21 | 254 | 11.3 | 17.7 | 0.00 | 0.00 | 0.00 | 46 | 1008.6 |
| 20260503203040 | 20 | 283 | 8.0 | 25.7 | 0.00 | 0.00 | 0.00 | 46 | 1008.9 |
| 20260503201537 | 20 | 252 | 12.9 | 24.1 | 0.00 | 0.00 | 0.00 | 45 | 1008.5 |
| 20260503200036 | 19 | 255 | 11.3 | 19.3 | 0.00 | 0.00 | 0.00 | 47 | 1009.3 |
| 20260503194530 | 19 | 244 | 4.8 | 17.7 | 0.00 | 0.00 | 0.00 | 46 | 1009.8 |
| 20260503193034 | 18 | 234 | 6.4 | 19.3 | 0.00 | 0.00 | 0.00 | 46 | 1010.1 |
| 20260503191527 | 18 | 172 | 6.4 | 19.3 | 0.00 | 0.00 | 0.00 | 46 | 1010.2 |
| 20260503190030 | 18 | 224 | 9.7 | 20.9 | 0.00 | 0.00 | 0.00 | 44 | 1010.4 |
| 20260503184526 | 18 | 275 | 8.0 | 24.1 | 0.00 | 0.00 | 0.00 | 46 | 1009.8 |
| 20260503183034 | 18 | 205 | 8.0 | 22.5 | 0.00 | 0.00 | 0.00 | 44 | 1010.5 |
| 20260503181519 | 18 | 253 | 12.9 | 30.6 | 0.00 | 0.00 | 0.00 | 43 | 1010.9 |
| 20260503180021 | 17 | 217 | 16.1 | 33.8 | 0.00 | 0.00 | 0.00 | 43 | 1011.0 |
| 20260503174516 | 17 | 172 | 17.7 | 30.6 | 0.00 | 0.00 | 0.00 | 42 | 1010.9 |
| 20260503173017 | 17 | 201 | 11.3 | 30.6 | 0.00 | 0.00 | 0.00 | 44 | 1011.5 |
| 20260503171513 | 18 | 226 | 9.7 | 24.1 | 0.00 | 0.00 | 0.00 | 43 | 1011.7 |